Preview of NWS' New Version of Forecast
This preview is not operational and should not be used for support decisions.

Regional Weather Roundup (RWR)

Issued by Gray - Portland, ME (GYX)

                            
000
ASUS41 KGYX 231605
RWRGYX
WEATHER ROUNDUP FOR MAINE AND NEW HAMPSHIRE
NATIONAL WEATHER SERVICE GRAY ME
1200 PM EDT TUE JUL 23 2019

MEZ002-005-006-010-012-015-018-020-021-024-026-027-029-231700-
MAINE
  
CITY           SKY/WX    TMP DP  RH WIND       PRES   REMARKS
PORTLAND       LGT RAIN  63  56  78 N7        29.86S                  
SANFORD        PTSUNNY   62  57  83 N6        29.87S                  
BAR HARBOR     LGT RAIN  65  60  84 SE3       29.82F                  
WISCASSET      LGT RAIN  63  59  87 CALM      29.86R                  
ROCKLAND       LGT RAIN  63  60  90 W3        29.84R                  
FRYEBURG       PTSUNNY   64  56  75 CALM      29.87S                  
LEWISTONAUBURN LGT RAIN  63  57  81 SW3       29.86S                  
AUGUSTA        CLOUDY    64  59  83 NW3       29.86R                  
WATERVILLE     LGT RAIN  65  55  70 CALM      29.83S                  
BANGOR         CLOUDY    66  59  78 NW8       29.83F                  
GREENVILLE       N/A     64  55  72 CALM      29.84F                  
MILLINOCKET    FAIR      67  52  58 CALM      29.84F                  
HOULTON        FAIR      67  53  61 SE3       29.81F                  
PRESQUE ISLE   FAIR      68  54  60 CALM      29.83F                  
FRENCHVILLE    FAIR      66  53  63 SW7       29.82F                  
CARIBOU        FAIR      68  54  60 CALM      29.82F                  
$$

NHZ002-005-008-009-011-012-014-231700-
NEW HAMPSHIRE
  
CITY           SKY/WX    TMP DP  RH WIND       PRES   REMARKS
PORTSMOUTH     LGT RAIN  61  57  85 N9        29.85R                  
ROCHESTER      LGT RAIN  61  58  90 NE5       29.85F                  
NASHUA         CLOUDY    62  61  96 NE6       29.86F                  
MANCHESTER     CLOUDY    63  59  87 NE3       29.85R                  
CONCORD        CLOUDY    63  56  78 NE6       29.87R                  
LACONIA        CLOUDY    63  58  83 CALM      29.88R                  
PLYMOUTH       PTSUNNY   64  57  80 CALM      29.86F                  
BERLIN         FAIR      67  54  63 CALM      29.88R                  
WHITEFIELD     FAIR      65  53  65 CALM      29.88S                  
JAFFREY        LGT RAIN  61  58  90 VRB3      29.89R                  
KEENE          LGT RAIN  62  59  90 CALM      29.87R                  
LEBANON        CLOUDY    68  57  68 N5        29.86F                  
MT WASHINGTON  PTSUNNY   45  34  65 N12         N/A                   
$$

VTZ005-007-008-231700-
VERMONT
  
CITY           SKY/WX    TMP DP  RH WIND       PRES   REMARKS
ST JOHNSBURY     N/A     68  57  68 MISG      29.85F                  
MONTPELIER     FAIR      67  56  67 CALM      29.91S                  
BURLINGTON     FAIR      76  56  49 VRB3      29.85F                  
$$

MAZ007-012-024-CTZ003-RIZ002-NYZ038-NYZ072-231700-
SOUTHERN NEW ENGLAND AND NY
  
CITY           SKY/WX    TMP DP  RH WIND       PRES   REMARKS
WORCESTER      CLOUDY    59  57  93 NE13G24   29.85R                  
NANTUCKET      PTSUNNY   74  70  87 S21       29.69F                  
PROVIDENCE     LGT RAIN  66  64  93 N17G28    29.79R                  
HARTFORD       CLOUDY    69  63  81 N10       29.83R                  
ALBANY         PTSUNNY   72  60  66 VRB5      29.88R                  
NEW YORK CITY  CLOUDY    73  62  68 N13       29.83R                  
$$

ANZ081-ANZ082-ANZ150-NHZ014-MEZ023>029-231700-
COASTAL MARINE OBSERVATIONS
  
STATION/POSITION TIME  TEMP    WIND        PRES    WAVE
                       AIR SEA DIR/SP/G            HT/PER
                 (UTC) (F)     (DEG/KT/KT) (MB)    (FT/S)
ISLE OF SHOALS   1500   60      30/ 13/ 15 1010.1R
JEFFREYS LEDGE   1538      67                N/A     5/ 5
CASHES LEDGE BUO 1550   58 58   20/ 14/ 16 1010.5R   3/ 7
GEORGES BANK BUO 1540   65 61  190/  6/  8 1010.7F
$$

.............KEY..............
   WCI - WIND CHILL
   TC  - TEMPERATURE IN CELSIUS
   VSB - VISIBILITY IN MILES
   HX  - HEAT INDEX
   FAIR- INDICATES FEW OR NO CLOUDS BELOW 12,000 FT, WITH NO 
         SIGNIFICANT WEATHER AND/OR OBSTRUCTIONS TO VISIBILITY.